Location: Chenereilles
(45.4866°N, 4.0790°E)
Time: 10:33:58
(UTC+00:00)

CZ-4 R/B - Pass Details

Date: 12 November 2019
Orbit: 530 x 601 km, 97.8° (Epoch: 09 December)

Event Time Altitude Azimuth Distance (km) Brightness Sun altitude
Rises 18:27:42 0° 183° (S) 2,829 5.0 -23.0°
Reaches altitude 10° 18:29:58 10° 191° (S) 1,926 4.2 -23.4°
Maximum altitude 18:33:56 41° 261° (W) 864 2.7 -24.0°
Drops below altitude 10° 18:37:53 10° 333° (NNW) 1,911 4.4 -24.7°
Sets 18:40:07 0° 341° (NNW) 2,804 5.2 -25.1°
